Regional Weather Roundup
Issued by NWS State College, PA

Home | Current Version | Previous Version | Text Only | Print | Product List | Glossary Off
Versions: 1 2 3 4 5 6 7 8 9 10 11 12 13 14 15 16 17 18 19 20 21 22 23 24 25 26 27 28 29 30 31 32 33 34 35 36 37 38 39 40 41 42 43 44 45 46 47 48 49 50

000
ASUS41 KCTP 130903
RWRCTP

REGIONAL WEATHER ROUNDUP
NATIONAL WEATHER SERVICE STATE COLLEGE PA
400 AM EST SAT FEB 13 2016

Note: "fair" indicates few or no clouds below 12,000 feet with no
significant weather and/or obstructions to visibility.

* = STATION THAT DOES NOT REPORT PRECIPITATION /E.G. RAIN...SNOW...ETC/
    THUNDER OR FOG.

PAZ002>004-007>009-013>016-020>023-029>032-131000-
WESTERN PENNSYLVANIA

CITY           SKY/WX    TMP DP  RH WIND       PRES   REMARKS
ERIE           CLOUDY    11   1  64 NW17G28   30.14R HAZE    WCI  -6
MEADVILLE      HAZE       7   0  73 W12       30.07R VSB 3/4 WCI  -8
FRANKLIN*      PTCLDY     7  -6  56 W10G20    30.07R WCI  -8
NEW CASTLE     FLURRIES   7   0  73 NW13G20   30.17R WCI  -9
BEAVER COUNTY  NOT AVBL
BUTLER*        CLEAR      9  -2  61 NW13G21   30.15R WCI  -7
PITTSBURGH INT MOCLDY    10   1  67 NW21G29   30.13R WCI  -9
PITTSBURGH     CLOUDY    13   2  61 NW13G26   30.10R WCI  -2
INDIANA*       MOCLDY    12   5  73 NW15G26   30.07R HAZE    WCI  -4
LATROBE        LGT SNOW  14   7  73 NW13G23   30.09R WCI   0
WASHINGTON CO* PTCLDY    12   0  57 W10G16    30.14R WCI  -1
$$

PAZ004>006-010>012-017>019-024>028-033>037-041-042-045-046-049>053-131000-
CENTRAL PENNSYLVANIA

CITY           SKY/WX    TMP DP  RH WIND       PRES   REMARKS
BRADFORD       LGT SNOW   7   0  73 NW15      29.90R WCI -10
DUBOIS         LGT SNOW   8   3  80 NW15G23   29.96R WCI  -9
CLEARFIELD     LGT SNOW  10   2  69 NW9       29.98R WCI  -3
JOHNSTOWN      HVY SNOW   9   3  77 NW18G30   29.91S VSB 1/4 WCI -10
ALTOONA        FLURRIES  13   3  64 NW21G28   29.98R WCI  -5
STATE COLLEGE  CLEAR     13   3  64 NW10G16   29.97R WCI   0
WILLIAMSPORT   FLURRIES  18   8  65 NW17G25   29.95R WCI   3
SELINSGROVE    CLEAR     19   6  57 NW13      29.96R WCI   6
FT INDIANTOWN  CLEAR     19   6  56 W16       29.94R WCI   5
CAPITAL CITY   CLEAR     21   3  45 W14G24    29.98R WCI   8
HARRISBURG     PTCLDY    21   8  57 NW21G28   29.97R WCI   5
YORK           PTCLDY    19   4  51 W10       29.96R WCI   7
$$

PAZ038>040-043-044-047-048-054-055-060>062-067>071-131000-
EASTERN PENNSYLVANIA

CITY           SKY/WX    TMP DP  RH WIND       PRES   REMARKS
SCRANTON       CLOUDY    16  11  80 SW8       29.84R WCI   5
MOUNT POCONO   CLOUDY    13   7  77 W13       29.74S WCI  -2
ALLENTOWN      CLEAR     16  11  80 W6        29.89S WCI   7
QUAKERTOWN*    SUNNY     16  14  93 W5        29.89S WCI   9
READING        CLEAR     17  11  77 W8        29.92R WCI   7
LANCASTER      CLEAR     11   9  92 W7        29.94R WCI   0
COATESVILLE    SUNNY     18  14  86 W9        29.92R WCI   6
POTTSTOWN      CLEAR     17  13  84 W6        29.93S WCI   9
BLUE BELL        N/A     19  16  86 W3        29.90F
DOYLESTOWN     CLEAR     17  13  84 W5        29.88F WCI  10
WILLOW GROVE   NOT AVBL
NORTH PHILA    CLEAR     22  14  71 W9        29.93F WCI  12
PHILADELPHIA   PTCLDY    21  14  74 W13       29.95S WCI   9
$$



USA.gov is the U.S. government's official web portal to all federal, state and local government web resources and services.